Temperature
19 18 18 17 17 17 17 16 16 16 16 16 15 15 15 15 15 15 15 15 15 15 14 14 14 14 14 14 14 14 14 14 14 14 14 14 14 14 14 13 13 13 13
19 18 18 17 17 17 17 16 16 16 15 15 15 15 15 14 14 14 14 14 14 14 14 14 14 14 14 14 14 14 13 13 13 14 13 13 13 14 13 13 13 13 13
19 18 18 17 17 17 16 16 16 15 15 15 15 14 14 14 14 14 14 14 14 14 14 14 13 13 13 13 13 13 13 13 13 13 13 13 13 13 13 13 13 13 12
19 18 17 17 17 16 16 16 16 15 15 15 14 14 14 14 14 14 13 13 13 13 13 13 13 13 13 13 13 13 13 12 12 13 13 13 13 12 12 12 12 12 12
18 18 17 17 16 16 16 16 15 15 15 14 14 14 14 14 13 13 13 13 13 13 12 13 13 13 12 12 12 12 12 12 12 12 12 12 12 12 12 12 12 12 12
18 17 17 16 16 16 15 15 15 15 14 14 14 14 14 13 13 13 13 13 12 12 12 12 12 12 12 12 12 12 12 11 11 11 11 11 11 11 11 11 11 11 11
18 17 16 16 16 15 15 15 15 14 14 14 14 14 13 13 13 13 13 12 12 12 12 12 12 12 11 11 11 11 11 11 11 11 11 11 11 11 11 11 11 11 11
17 17 16 16 15 15 15 15 14 14 14 14 14 13 13 13 13 12 12 12 12 12 11 11 11 11 11 11 11 11 11 11 11 11 10 10 11 11 11 11 11 10 10
17 17 16 16 15 15 14 14 14 14 14 13 13 13 13 13 12 12 12 12 11 11 11 11 11 11 11 10 10 10 10 10 10 10 10 10 10 10 10 10 10 10 10
17 16 16 15 15 14 14 14 14 14 13 13 13 13 13 13 12 12 12 11 11 11 11 11 10 10 10 10 10 10 10 10 10 10 10 10 10 10 10 10 10 10 10
17 16 16 15 15 14 14 14 13 13 13 13 13 13 12 12 12 12 12 11 11 11 11 10 10 10 10 10 10 10 10 9 9 9 9 9 9 9 9 10 9 10 9
17 16 16 15 14 14 14 14 13 13 13 13 12 12 12 12 12 11 11 11 11 11 10 10 10 10 10 10 10 9 9 9 9 9 9 9 9 9 9 9 9 9 9
16 16 15 15 14 14 13 13 13 13 13 12 12 12 12 12 11 11 11 11 11 10 10 10 10 10 10 9 9 9 9 9 9 9 9 9 9 8 8 8 8 8 8
16 15 15 14 14 14 13 13 13 13 12 12 12 12 12 11 11 11 11 11 10 10 10 10 10 10 9 9 9 9 9 9 8 8 8 8 8 8 8 8 8 8 8
16 15 15 14 14 14 13 13 13 12 12 12 12 11 11 11 11 11 11 10 10 10 10 10 10 9 9 9 9 9 9 8 8 8 8 8 8 8 8 8 8 8 7
15 15 14 14 13 13 13 12 12 12 12 12 11 11 11 11 11 11 10 10 10 10 10 10 9 9 9 9 9 9 8 8 8 8 8 8 8 8 8 7 7 7 7
14 14 13 13 13 12 12 12 12 12 11 11 11 11 11 11 11 10 10 10 10 10 9 9 9 9 9 9 9 8 8 8 8 8 8 7 7 7 7 7 7 7 7
13 13 13 12 12 12 12 12 11 11 11 11 11 11 10 10 10 10 10 10 9 9 9 9 9 9 9 8 8 8 8 8 8 7 7 7 7 7 7 7 6 6 6
13 12 12 12 12 12 11 11 11 11 11 10 10 10 10 10 10 10 10 9 9 9 9 9 9 8 8 8 8 8 8 8 7 7 7 7 7 7 7 6 6 6 6
12 12 11 11 11 11 11 11 11 10 10 10 10 10 10 10 10 10 9 9 9 9 9 8 8 8 8 8 8 8 8 7 7 7 7 7 6 6 6 6 6 6 6
11 11 11 11 11 11 11 10 10 10 10 10 9 9 9 9 9 9 9 9 9 9 8 8 8 8 8 8 8 7 7 7 7 7 6 6 6 6 6 6 6 6 6
11 10 10 10 10 10 10 10 10 10 9 9 9 9 9 9 9 9 9 8 8 8 8 8 8 8 7 7 7 7 7 7 7 6 6 6 6 6 6 6 5 5 5
10 10 10 10 9 9 9 9 9 9 9 9 9 9 9 9 9 9 8 8 8 8 7 7 7 7 7 7 7 7 6 6 6 6 6 6 6 5 5 5 5 5 5
10 9 9 9 9 9 9 9 9 9 9 8 8 8 8 8 8 8 8 8 8 8 7 7 7 7 7 6 6 6 6 6 6 6 5 5 5 5 5 5 5 5 5
9 9 9 9 8 8 8 8 8 8 8 8 8 8 8 8 8 8 8 8 7 7 7 7 7 7 6 6 6 6 6 6 5 5 5 5 5 5 4 4 4 4 4
9 8 8 8 8 8 7 8 8 7 7 7 7 7 7 7 7 7 7 7 7 7 7 7 6 6 6 6 6 6 6 5 5 5 5 4 4 4 4 4 4 4 4
Wind_Speed
6 6 5 5 5 4 5 5 4 4 4 3 2 3 2 2 3 4 6 7 7 6 5 4 4 4 3 3 3 3 3 2 2 2 2 2 3 3 2 3 3 4 6
6 7 6 5 4 4 4 4 4 4 4 3 2 2 3 3 3 3 5 6 6 6 5 4 3 3 3 3 4 3 2 2 2 2 1 1 2 3 2 2 2 3 4
7 7 6 5 4 4 4 3 3 4 4 3 3 3 3 2 3 2 2 4 5 6 5 5 4 3 3 3 3 4 3 2 3 3 2 1 0 1 2 2 2 3 2
7 7 6 5 4 4 4 3 4 4 3 3 3 3 3 2 1 2 2 2 4 5 5 5 4 3 3 3 3 3 2 2 2 3 3 1 1 0 1 2 1 2 3
7 7 7 6 4 3 3 3 3 3 3 3 3 3 3 2 2 2 3 3 3 3 4 4 3 3 2 2 2 2 3 2 2 1 2 3 3 1 0 1 1 1 1
6 6 6 6 4 3 3 3 3 3 3 3 3 4 3 3 3 2 2 2 2 2 3 4 3 3 2 2 2 2 2 2 2 1 1 1 2 2 0 1 1 0 1
6 6 6 5 4 3 3 3 3 3 3 3 3 3 4 3 3 3 2 2 1 1 2 2 2 2 2 2 2 2 1 2 2 2 1 2 1 1 1 0 1 0 1
7 6 6 6 5 4 3 3 3 3 3 3 2 2 3 2 2 3 3 2 2 2 1 2 2 2 2 2 2 2 2 2 2 2 2 2 2 2 1 0 0 1 1
6 6 6 5 5 4 3 3 3 2 2 2 3 3 2 2 2 3 3 2 2 2 2 2 1 2 2 2 2 1 1 2 2 2 2 2 2 2 1 1 0 0 1
6 5 5 5 4 4 3 2 3 3 2 2 2 2 3 3 2 2 3 2 2 2 2 1 1 1 1 2 2 1 1 1 1 1 2 2 1 2 1 1 1 1 0
6 5 5 4 4 3 3 2 3 2 2 2 2 2 2 3 3 2 2 2 2 2 2 2 1 1 1 1 1 1 1 1 2 2 2 2 2 2 2 1 2 2 1
4 4 5 4 3 3 3 3 3 3 2 2 3 2 2 3 3 2 2 2 2 1 2 2 1 1 0 1 1 0 1 1 2 2 2 2 2 2 2 1 1 1 1
3 3 4 4 3 3 2 2 3 3 2 2 3 3 2 3 3 3 2 2 2 1 1 2 2 1 1 0 0 0 1 1 1 2 2 2 2 2 2 1 1 1 1
3 3 3 3 3 3 2 2 1 2 2 2 2 3 2 3 3 3 2 2 2 1 1 2 2 2 1 1 0 1 1 1 1 1 2 2 2 2 2 2 1 1 1
2 2 2 1 1 2 2 2 2 2 2 2 2 3 2 2 3 3 2 2 2 2 2 2 1 1 1 0 1 1 1 1 1 1 1 1 1 2 2 2 1 1 1
3 2 1 2 1 0 1 1 2 2 2 2 2 2 3 3 3 3 2 2 2 2 1 2 2 2 1 0 1 2 2 2 1 1 1 1 0 2 3 3 3 2 1
2 2 2 1 1 1 1 1 1 1 2 2 2 2 3 3 3 3 3 2 2 2 2 2 2 2 2 1 1 3 3 2 1 1 2 2 1 2 1 3 3 3 3
2 2 2 2 2 1 1 2 2 2 2 2 2 2 3 3 3 3 3 3 2 2 2 2 2 2 2 2 2 3 3 3 2 2 1 0 0 1 2 2 2 2 2
2 2 2 2 2 1 2 2 3 2 2 2 2 2 3 3 3 3 4 3 2 2 2 3 2 2 2 2 1 2 2 2 2 1 1 0 0 3 3 1 1 1 2
1 2 2 3 2 2 1 1 2 2 2 2 2 2 2 3 4 4 3 3 3 3 3 3 3 3 2 2 1 2 2 2 2 1 1 1 1 3 3 2 1 2 3
1 1 2 2 2 2 2 1 1 1 2 1 1 2 2 3 3 3 3 2 2 3 3 3 2 2 2 2 2 1 1 1 1 1 1 1 1 2 3 3 2 3 3
1 1 1 2 3 2 2 1 1 1 1 1 2 2 2 2 2 3 3 2 2 3 3 3 2 2 2 2 2 2 2 2 1 2 1 1 2 2 2 2 3 3 3
1 1 1 1 2 2 2 2 2 1 0 1 2 2 2 2 2 2 3 2 2 2 3 2 2 2 1 2 2 3 4 3 2 2 2 2 1 2 2 3 3 2 2
1 1 1 1 1 2 3 2 2 1 1 1 2 2 2 1 1 1 2 2 2 2 2 2 2 2 1 1 1 2 2 3 2 2 2 2 2 2 2 2 2 2 2
2 1 1 1 2 1 2 2 2 1 1 1 2 1 1 1 1 1 1 2 2 4 4 3 3 3 3 3 2 2 3 3 2 1 1 1 1 1 2 2 2 2 2
2 1 2 2 2 2 2 2 2 2 2 1 2 1 1 1 1 2 0 0 2 2 3 4 3 2 2 2 2 2 2 2 2 1 1 1 1 2 2 2 2 1 2
Wind_Direction
155 144 137 127 125 121 112 110 110 99 96 93 89 86 78 68 59 56 45 42 50 51 50 48 56 55 54 36 29 32 35 39 40 51 34 42 67 58 68 68 74 69 66
149 142 141 137 140 131 113 110 112 103 103 97 107 108 90 78 74 59 51 40 43 46 48 47 55 55 56 41 34 41 34 14 31 44 25 17 14 9 64 74 82 74 63
156 147 145 143 139 130 128 133 118 107 102 102 90 92 82 78 75 74 59 42 45 52 51 53 53 59 60 50 44 44 44 10 358 18 46 67 341 331 12 51 74 80 66
153 145 146 137 135 133 138 138 126 122 121 125 116 115 113 114 118 106 96 70 52 53 49 54 60 56 54 58 46 47 45 36 359 350 2 17 87 109 335 344 34 76 83
147 143 141 133 134 132 131 139 137 133 126 123 134 131 121 128 114 92 88 80 55 57 50 51 67 66 60 61 43 42 41 41 26 12 355 0 356 11 98 286 319 8 30
145 140 131 128 135 137 135 134 128 126 132 145 152 139 130 125 111 101 101 96 72 39 48 48 53 56 55 51 35 41 29 18 12 14 30 16 353 336 334 273 254 256 278
145 138 133 133 138 135 135 140 144 153 156 159 150 149 141 149 148 139 133 122 107 68 62 52 52 51 47 52 36 34 15 14 19 11 360 9 339 339 2 324 285 290 288
148 145 146 148 149 145 146 150 149 153 158 164 165 148 144 149 145 146 138 142 133 127 108 63 67 58 51 45 36 23 5 16 24 8 6 14 355 3 13 16 9 322 314
148 151 149 145 144 149 160 164 153 152 157 170 170 149 138 138 147 150 134 131 131 139 110 87 80 67 65 58 50 35 11 11 10 359 4 10 2 349 352 9 53 172 276
150 147 146 149 153 156 169 165 157 169 168 149 157 144 136 144 148 134 125 131 153 129 137 146 124 110 80 67 68 19 359 19 340 349 2 354 338 356 7 3 352 5 204
148 151 151 149 151 158 171 175 171 172 158 153 155 157 156 150 143 130 131 145 163 156 158 152 147 115 106 102 93 23 343 355 356 356 352 338 346 4 351 4 2 356 11
137 144 145 143 144 155 171 177 176 174 170 165 160 161 154 151 153 141 144 147 168 180 158 151 156 150 120 121 140 255 21 5 349 337 340 332 348 356 330 355 344 328 333
132 135 136 143 154 162 172 184 188 172 169 173 158 152 157 154 148 147 160 167 171 182 177 164 171 174 176 140 87 80 18 342 340 341 339 338 352 334 331 317 286 300 334
135 130 128 144 170 175 180 188 185 155 164 178 165 156 164 151 148 154 164 180 173 181 199 175 182 180 180 158 75 349 327 341 350 355 349 345 343 324 318 313 305 308 312
111 116 118 117 152 169 174 182 181 168 173 176 171 167 161 146 148 156 176 186 187 204 204 182 177 169 188 156 17 317 328 315 313 314 293 293 311 328 323 321 316 330 298
44 33 87 103 104 163 197 194 192 180 174 174 180 168 163 157 163 171 173 176 193 212 216 207 189 183 211 318 345 339 297 271 262 280 277 266 303 353 349 335 338 317 266
30 6 360 24 255 255 267 242 232 194 188 188 179 181 169 160 168 181 179 184 196 203 230 224 180 166 178 189 292 320 311 286 260 263 281 305 352 16 349 335 339 345 337
14 4 341 331 314 270 246 238 228 217 207 199 189 182 167 170 177 183 188 196 199 195 208 223 208 181 201 215 255 305 293 281 269 267 268 251 190 328 333 317 325 322 334
16 353 331 315 294 278 239 220 216 221 212 205 209 201 179 183 187 188 193 200 200 204 203 212 205 189 202 216 234 292 274 273 272 282 308 346 110 313 325 309 282 289 285
24 352 332 325 317 322 313 238 209 197 219 226 223 209 195 199 199 191 192 201 203 207 205 210 198 188 188 207 236 274 247 262 269 265 288 334 342 325 321 298 265 265 270
2 354 331 322 319 322 308 283 244 216 243 246 220 206 206 212 204 186 190 194 203 209 212 211 198 188 186 192 210 272 227 258 274 266 261 255 285 302 304 304 267 269 290
344 349 332 328 328 327 307 301 289 274 263 228 216 213 207 220 210 188 193 194 201 213 219 211 207 203 190 173 211 253 274 302 277 274 274 255 276 288 299 298 294 292 301
318 334 321 315 327 336 329 306 312 342 267 206 213 212 202 199 196 194 191 187 199 211 213 206 212 217 198 195 211 245 272 296 296 281 292 290 291 295 288 291 296 290 269
316 315 302 304 322 334 330 335 339 332 281 218 222 205 190 183 176 186 189 186 202 206 208 207 214 221 209 189 201 228 258 284 303 309 279 278 270 284 286 301 289 266 254
329 327 304 303 317 335 337 348 351 349 293 238 226 201 187 188 188 184 214 204 208 201 205 212 209 204 216 230 219 221 234 237 247 277 284 252 265 269 272 263 259 271 276
320 322 317 316 315 327 331 352 359 341 310 255 216 194 189 194 185 184 204 303 223 212 203 200 197 211 213 214 184 214 253 253 229 179 211 224 228 234 245 261 266 270 273
Height
1514 1515 1517 1518 1520 1521 1522 1523 1524 1525 1526 1526 1527 1527 1528 1528 1528 1528 1529 1529 1529 1528 1528 1528 1528 1528 1527 1527 1528 1528 1527 1527 1528 1528 1528 1529 1529 1529 1529 1529 1529 1529 1529
1512 1514 1516 1518 1519 1520 1522 1523 1524 1524 1525 1525 1526 1527 1527 1528 1528 1528 1528 1528 1528 1528 1528 1528 1528 1528 1527 1527 1527 1527 1527 1528 1528 1528 1528 1529 1530 1529 1530 1529 1529 1529 1529
1509 1512 1514 1516 1518 1519 1521 1522 1523 1523 1524 1525 1526 1526 1526 1527 1527 1527 1527 1528 1528 1528 1528 1528 1527 1527 1527 1527 1527 1527 1527 1528 1528 1529 1530 1529 1529 1529 1530 1529 1529 1529 1529
1507 1510 1512 1515 1517 1518 1519 1521 1522 1522 1523 1524 1525 1525 1526 1526 1526 1526 1527 1527 1527 1527 1527 1527 1527 1527 1527 1527 1527 1527 1527 1527 1528 1528 1529 1530 1529 1529 1529 1529 1529 1529 1529
1506 1509 1511 1513 1515 1517 1518 1519 1520 1521 1522 1523 1524 1524 1525 1525 1526 1526 1526 1526 1526 1526 1527 1527 1527 1527 1526 1526 1526 1526 1527 1527 1527 1527 1527 1528 1528 1528 1528 1528 1528 1528 1528
1505 1508 1510 1512 1514 1515 1516 1517 1519 1520 1520 1521 1522 1523 1523 1524 1524 1525 1525 1526 1526 1526 1526 1526 1526 1526 1526 1526 1526 1526 1526 1526 1526 1527 1527 1527 1527 1527 1527 1527 1526 1526 1527
1504 1506 1508 1510 1512 1514 1515 1516 1517 1518 1519 1520 1521 1521 1522 1522 1523 1524 1524 1524 1524 1524 1525 1525 1525 1525 1525 1526 1525 1525 1525 1525 1526 1526 1526 1526 1526 1526 1526 1525 1525 1524 1525
1503 1505 1507 1509 1511 1512 1513 1514 1515 1517 1518 1518 1519 1520 1521 1521 1522 1522 1523 1523 1523 1523 1524 1524 1524 1524 1524 1524 1524 1524 1525 1525 1525 1525 1525 1525 1525 1524 1524 1524 1524 1523 1523
1502 1504 1506 1508 1509 1511 1512 1513 1514 1515 1516 1516 1517 1518 1519 1519 1520 1521 1521 1522 1522 1522 1523 1523 1523 1523 1523 1523 1523 1523 1524 1524 1524 1524 1524 1523 1523 1523 1522 1522 1522 1523 1521
1501 1503 1505 1506 1508 1509 1511 1512 1512 1513 1514 1514 1515 1516 1517 1517 1518 1519 1519 1520 1520 1521 1521 1522 1522 1522 1522 1522 1522 1522 1522 1522 1523 1523 1522 1522 1521 1521 1520 1520 1521 1520 1520
1500 1502 1504 1505 1507 1508 1509 1510 1511 1511 1512 1512 1513 1514 1515 1515 1516 1517 1517 1518 1519 1519 1520 1520 1521 1521 1521 1521 1521 1521 1521 1521 1521 1521 1521 1520 1520 1519 1519 1518 1518 1518 1518
1499 1500 1502 1504 1505 1506 1508 1508 1509 1510 1510 1510 1511 1512 1513 1513 1514 1515 1515 1516 1517 1517 1518 1519 1519 1519 1519 1519 1520 1520 1520 1520 1520 1519 1519 1518 1518 1517 1517 1516 1516 1516 1516
1498 1499 1501 1502 1503 1505 1506 1507 1507 1508 1508 1509 1509 1510 1510 1511 1512 1512 1513 1514 1515 1515 1516 1517 1517 1517 1518 1518 1518 1518 1518 1518 1518 1518 1517 1517 1516 1515 1515 1514 1514 1514 1514
1497 1498 1499 1500 1502 1503 1504 1505 1505 1506 1506 1506 1507 1507 1508 1508 1509 1510 1511 1512 1513 1513 1514 1514 1515 1515 1516 1516 1516 1516 1516 1516 1516 1516 1515 1515 1514 1514 1513 1512 1512 1512 1512
1496 1497 1498 1499 1500 1501 1502 1502 1503 1503 1504 1504 1505 1505 1506 1506 1507 1508 1508 1509 1510 1511 1512 1512 1512 1513 1514 1514 1514 1514 1514 1514 1514 1513 1513 1513 1512 1512 1511 1510 1510 1510 1509
1495 1496 1497 1497 1498 1499 1500 1500 1500 1501 1501 1502 1502 1503 1503 1503 1504 1505 1506 1507 1507 1508 1509 1510 1510 1511 1511 1512 1512 1512 1512 1511 1511 1511 1511 1510 1510 1509 1508 1508 1507 1507 1507
1495 1495 1496 1496 1496 1496 1497 1497 1498 1499 1499 1499 1500 1500 1500 1501 1501 1503 1503 1504 1505 1506 1506 1507 1508 1508 1508 1509 1509 1509 1509 1509 1509 1508 1508 1508 1507 1506 1505 1505 1505 1504 1504
1494 1494 1494 1494 1494 1494 1494 1495 1495 1496 1496 1497 1497 1497 1497 1498 1499 1499 1500 1501 1502 1503 1503 1504 1505 1505 1505 1506 1506 1506 1506 1506 1506 1506 1505 1505 1504 1503 1503 1502 1502 1501 1501
1493 1493 1493 1492 1492 1492 1492 1492 1492 1493 1493 1493 1493 1494 1494 1495 1495 1496 1497 1498 1499 1500 1500 1501 1502 1502 1502 1503 1503 1503 1503 1503 1503 1502 1502 1502 1501 1500 1500 1499 1498 1498 1498
1491 1491 1490 1490 1489 1489 1489 1489 1489 1489 1489 1489 1490 1490 1491 1492 1492 1493 1494 1495 1496 1496 1497 1498 1499 1499 1499 1500 1500 1500 1500 1499 1499 1499 1498 1498 1498 1497 1497 1496 1495 1495 1494
1489 1489 1488 1487 1487 1486 1486 1486 1486 1486 1486 1486 1486 1487 1488 1489 1490 1490 1491 1491 1492 1493 1494 1495 1495 1495 1496 1496 1496 1497 1496 1496 1495 1495 1494 1494 1494 1493 1493 1493 1492 1492 1492
1487 1486 1486 1485 1484 1484 1483 1483 1482 1482 1482 1482 1483 1484 1484 1485 1486 1487 1487 1488 1489 1489 1490 1490 1491 1491 1492 1492 1492 1493 1493 1493 1492 1491 1491 1491 1490 1490 1489 1489 1489 1489 1489
1485 1484 1483 1483 1482 1481 1481 1480 1479 1479 1479 1479 1479 1480 1481 1481 1482 1483 1483 1484 1485 1486 1486 1486 1486 1487 1488 1488 1488 1489 1489 1489 1489 1488 1488 1487 1487 1486 1486 1485 1486 1485 1485
1483 1482 1481 1480 1479 1479 1478 1477 1477 1476 1476 1476 1476 1477 1477 1478 1479 1479 1480 1480 1481 1481 1482 1482 1483 1483 1483 1483 1484 1484 1485 1485 1485 1484 1484 1484 1483 1483 1482 1482 1482 1482 1482
1481 1479 1478 1478 1477 1476 1475 1474 1474 1473 1473 1473 1473 1474 1474 1475 1475 1476 1477 1477 1478 1478 1479 1478 1479 1479 1479 1480 1480 1481 1481 1481 1481 1480 1480 1480 1480 1479 1479 1478 1478 1479 1478
1479 1477 1476 1475 1475 1474 1473 1472 1471 1471 1470 1470 1470 1470 1471 1471 1472 1472 1473 1474 1474 1475 1476 1476 1476 1476 1477 1477 1477 1477 1478 1478 1478 1477 1476 1476 1476 1476 1476 1475 1474 1475 1475